Content
SEND FEEDBACK

Daily
Averages
Monthly
Summary
Algeria

LE KHROUB, ALGERIA


Home > Africa > Algeria
Elevation: 2277 feet     Latitude: 36 16N     Longitude: 006 37E

WEATHER
 
SELECT A DAY
Number of Records: 273,855;   Date Range: 1/10/97 - 7/20/14
 
SHARE

PRINT THIS DATA

[ ← Previous Day ]
WEATHER ALMANAC - JANUARY 31, 2013
[ Next Day → ]
[ °C ]   °F
Weather ElementAverageHighLow
Temperature48 °F62.6 °F (1:30 pm)33.8 °F (6:00 am)
Dewpoint35.3 °F41 °F (3:00 pm)26.6 °F (6:00 am)
Humidity61.9 %81 % (7:00 am)28 % (1:00 pm)
Barometer30.44 in30.51 in (11:30 am)30.39 in (1:00 am)
Wind Speed2.9 mph6.9 mph (1:30 pm)
Weather ElementAverage
Visibility7.5 mi
Wind DirectionSSE (158 °)

Weather ElementTotal
Precipitation---
Heating Degree Days16.8 (Base 65)
Averaged from 54 records on January 31, 2013
WEATHER CONDITIONS BREAKOUT
WIND DIRECTION BREAKOUT
WEATHER BY HOUR - JANUARY 31, 2013
[ °C ]   °F
Local TimeTemperatureDewpointHumidityBarometerVisibilityWind DirectionWind SpeedGust SpeedPrecipitationEventsConditions
12:30 AM41.0 °F30.2 °F65 %30.42 inCalmClear
1:00 AM42.0 °F31.0 °F55 %30.41 in6.0 miCalm
1:00 AM42.8 °F32.0 °F66 %30.39 inCalmClear
1:30 AM42.8 °F32.0 °F66 %30.39 inCalmClear
2:00 AM39.2 °F30.2 °F70 %30.39 inCalmClear
2:30 AM39.2 °F30.2 °F70 %30.39 inCalmClear
3:00 AM41.0 °F30.2 °F65 %30.42 inCalmClear
3:30 AM39.2 °F30.2 °F70 %30.39 inCalmClear
4:00 AM38.0 °F30.0 °F64 %30.42 in6.0 miCalm
4:00 AM37.4 °F30.2 °F75 %30.42 inCalmClear
4:30 AM37.4 °F30.2 °F75 %30.42 inCalmClear
5:00 AM37.4 °F30.2 °F75 %30.42 inCalmClear
5:30 AM37.4 °F30.2 °F75 %30.42 inCalmClear
6:00 AM33.8 °F26.6 °F75 %30.42 inSE (130°)4.6 mphClear
6:30 AM33.8 °F26.6 °F75 %30.42 inEast (100°)3.5 mphClear
7:00 AM34.0 °F29.0 °F73 %30.46 in6.0 miCalmClear
7:00 AM33.8 °F28.4 °F81 %30.42 inCalmClear
7:30 AM33.8 °F28.4 °F81 %30.42 inCalmClear
8:00 AM35.6 °F30.2 °F81 %30.42 inCalmClear
8:30 AM41.0 °F33.8 °F76 %30.45 inEast (90°)2.3 mphClear
9:00 AM44.6 °F37.4 °F76 %30.45 inSSE (160°)4.6 mphClear
9:30 AM44.6 °F37.4 °F76 %30.45 inSE (140°)4.6 mphClear
10:00 AM47.0 °F35.0 °F52 %30.50 in9.0 miESE (110°)2.3 mphClear
10:00 AM46.4 °F35.6 °F66 %30.48 inESE (110°)2.3 mphClear
10:30 AM50.0 °F35.6 °F58 %30.48 inESE (110°)2.3 mphClear
11:00 AM53.6 °F37.4 °F54 %30.48 inNNW (340°)4.6 mphClear
11:30 AM57.2 °F35.6 °F44 %30.51 inNW (320°)3.5 mphClear
12:00 PM59.0 °F35.6 °F42 %30.48 inNNW (330°)4.6 mphClear
12:30 PM60.8 °F35.6 °F39 %30.48 inWNW (300°)4.6 mphClear
1:00 PM61.0 °F37.0 °F28 %30.48 in9.0 miWNW (300°)4.6 mphClear
1:00 PM60.8 °F37.4 °F42 %30.48 inWNW (300°)4.6 mphClear
1:30 PM62.6 °F39.2 °F42 %30.45 inNW (320°)6.9 mphClear
2:00 PM60.8 °F37.4 °F42 %30.45 inNNW (330°)6.9 mphClear
2:30 PM62.6 °F37.4 °F39 %30.45 inNNW (330°)6.9 mphClear
3:00 PM62.6 °F41.0 °F45 %30.42 inNNW (330°)6.9 mphClear
3:30 PM62.6 °F41.0 °F45 %30.42 inNNW (330°)6.9 mphClear
4:00 PM62.0 °F41.0 °F34 %30.43 in9.0 miNNW (340°)6.9 mphClear
4:00 PM62.6 °F41.0 °F45 %30.42 inNNW (340°)6.9 mphClear
4:30 PM60.8 °F41.0 °F48 %30.42 inNNW (340°)6.9 mphClear
5:00 PM60.8 °F41.0 °F48 %30.42 inNNW (340°)6.9 mphClear
5:30 PM59.0 °F41.0 °F51 %30.42 inNNW (340°)6.9 mphClear
6:00 PM55.4 °F39.2 °F54 %30.42 inWest (270°)6.9 mphClear
6:30 PM51.8 °F39.2 °F62 %30.45 inWest (270°)6.9 mphClear
7:00 PM50.0 °F40.0 °F58 %30.49 in9.0 miWNW (290°)6.9 mphClear
7:00 PM50.0 °F39.2 °F66 %30.45 inWNW (290°)6.9 mphClear
8:00 PM50.0 °F41.0 °F71 %30.45 inNNW (340°)2.3 mphClear
8:30 PM50.0 °F39.2 °F66 %30.45 inCalmClear
9:00 PM48.2 °F39.2 °F71 %30.45 inCalmClear
9:30 PM48.2 °F39.2 °F71 %30.45 inCalmClear
10:00 PM46.0 °F36.0 °F60 %30.48 in6.0 miCalm
10:00 PM46.4 °F37.4 °F71 %30.45 inCalmClear
10:30 PM44.6 °F39.2 °F81 %30.45 inCalmClear
11:00 PM44.6 °F39.2 °F81 %30.42 inSE (130°)3.5 mphClear
11:30 PM42.8 °F37.4 °F81 %30.42 inSE (130°)3.5 mphClear
Hourly data recorded from DABC, located miles away from Le Khroub, Algeria







STORIES FROM OUR PARTNERS